Oconto, WI

6:22 PM CST on November 20, 2019 (GMT -0600)
Oconto Municipal

Weather History for KOCQ - October, 2019

Change the Weather History Date:

Friday, October 18, 2019

  Actual Average Record
Temperature  
Mean Temperature 42 °F -  
Max Temperature 53 °F 57 °F 71 °F (2017)
Min Temperature 30 °F 34 °F 20 °F (2018)
Degree Days  
Heating Degree Days 24    
Moisture  
Dew Point 38 °F    
Average Humidity 84    
Maximum Humidity 100    
Minimum Humidity 63    
Precipitation  
Precipitation 0.00 in - - ()
Sea Level Pressure  
Sea Level Pressure 29.98 in    
Wind  
Wind Speed 3 mph (SSE)    
Max Wind Speed 14 mph    
Max Gust Speed 20 mph    
Visibility 9 miles    
Events      
Averages and records for this station are not official NWS values.
T = Trace of Precipitation, MM = Missing Value Source: NWS Daily Summary

Daily Weather History Graph

Daily Weather History Graph

Search for Another Location

Airport or City:

Astronomy

Oct. 18, 2019 Rise Set
Actual Time 7:10 AM CDT 6:02 PM CDT
Civil Twilight 6:41 AM CDT 6:31 PM CDT
Nautical Twilight 6:07 AM CDT 7:05 PM CDT
Astronomical Twilight 5:33 AM CDT 7:39 PM CDT
Moon 9:08 PM CDT (10/18) 11:53 AM CDT (10/18)
Length of Visible Light 11h 50m
Length of Day
10h 51m
Waning Gibbous, 78% of the Moon is Illuminated
Oct 18
Waning Gibbous
Oct 21
Last Quarter
Oct 27
New
Nov 4
First Quarter
Nov 12
Full

Hourly Weather History & Observations

Time (CDT) Temp. Windchill Dew Point Humidity Pressure Visibility Wind Dir Wind Speed Gust Speed Precip Events Conditions
12:15 AM 32.9 °F - 32.5 °F 99% 30.03 in 10.0 mi Calm Calm - N/A   Clear
12:35 AM 32.4 °F - 32.0 °F 99% 30.03 in 10.0 mi Calm Calm - N/A   Clear
12:55 AM 32.7 °F - 32.5 °F 99% 30.04 in 10.0 mi Calm Calm - N/A   Clear
1:15 AM 32.2 °F - 32.0 °F 99% 30.04 in 10.0 mi Calm Calm - N/A   Clear
1:35 AM 32.5 °F - 32.4 °F 99% 30.04 in 7.0 mi Calm Calm - N/A   Scattered Clouds
1:55 AM 32.7 °F - 32.5 °F 99% 30.04 in 10.0 mi Calm Calm - N/A   Mostly Cloudy
2:15 AM 32.7 °F - 32.4 °F 99% 30.05 in 10.0 mi Calm Calm - N/A   Mostly Cloudy
2:35 AM 32.5 °F - 32.4 °F 99% 30.05 in 10.0 mi Calm Calm - N/A   Overcast
2:55 AM 33.8 °F - 33.4 °F 99% 30.06 in 10.0 mi Calm Calm - N/A   Overcast
3:15 AM 34.9 °F - 34.3 °F 98% 30.05 in 10.0 mi Calm Calm - N/A   Overcast
3:35 AM 35.2 °F - 34.7 °F 98% 30.05 in 10.0 mi Calm Calm - N/A   Overcast
3:55 AM 35.4 °F - 34.7 °F 97% 30.05 in 10.0 mi Calm Calm - N/A   Overcast
4:15 AM 34.5 °F - 34.0 °F 98% 30.04 in 10.0 mi Calm Calm - N/A   Scattered Clouds
4:35 AM 33.3 °F - 32.9 °F 99% 30.04 in 10.0 mi Calm Calm - N/A   Clear
4:55 AM 33.1 °F - 32.9 °F 99% 30.05 in 7.0 mi Calm Calm - N/A   Clear
5:15 AM 32.2 °F - 32.0 °F 99% 30.05 in 7.0 mi Calm Calm - N/A   Clear
5:35 AM 32.0 °F - 32.0 °F 100% 30.05 in 2.0 mi Calm Calm - N/A   Clear
5:55 AM 32.0 °F - 31.8 °F 99% 30.06 in 5.0 mi Calm Calm - N/A   Clear
6:15 AM 31.6 °F - 31.5 °F 99% 30.06 in 1.2 mi Calm Calm - N/A   Unknown
6:35 AM 31.8 °F - 31.8 °F 100% 30.06 in 4.0 mi Calm Calm - N/A   Clear
6:55 AM 31.5 °F - 31.5 °F 100% 30.06 in 3.0 mi Calm Calm - N/A   Clear
7:15 AM 30.9 °F - 30.9 °F 100% 30.06 in 3.0 mi Calm Calm - N/A   Clear
7:35 AM 30.6 °F - 30.6 °F 100% 30.05 in 4.0 mi Calm Calm - N/A   Clear
7:55 AM 31.1 °F - 31.1 °F 100% 30.06 in 7.0 mi Calm Calm - N/A   Clear
8:15 AM 32.9 °F - 32.7 °F 99% 30.05 in 7.0 mi Calm Calm - N/A   Clear
8:35 AM 36.0 °F - 35.6 °F 99% 30.05 in 10.0 mi Calm Calm - N/A   Clear
8:55 AM 39.9 °F - 37.8 °F 92% 30.05 in 10.0 mi Calm Calm - N/A   Clear
9:15 AM 42.6 °F - 39.4 °F 88% 30.05 in 10.0 mi Calm Calm - N/A   Clear
9:35 AM 44.4 °F 42.9 °F 40.3 °F 85% 30.05 in 10.0 mi WSW 3.5 mph - N/A   Clear
9:55 AM 46.9 °F - 40.5 °F 78% 30.05 in 10.0 mi SSE 5.8 mph - N/A   Clear
10:15 AM 47.8 °F - 39.4 °F 72% 30.04 in 10.0 mi South 6.9 mph - N/A   Clear
10:35 AM 48.2 °F - 38.5 °F 69% 30.04 in 10.0 mi South 8.1 mph - N/A   Clear
10:55 AM 48.2 °F - 38.3 °F 69% 30.03 in 10.0 mi South 8.1 mph - N/A   Clear
11:15 AM 49.3 °F - 38.3 °F 66% 30.03 in 10.0 mi South 8.1 mph - N/A   Clear
11:35 AM 49.5 °F - 38.7 °F 66% 30.03 in 10.0 mi SSE 6.9 mph - N/A   Clear
11:55 AM 50.2 °F - 38.3 °F 64% 30.01 in 10.0 mi South 9.2 mph - N/A   Clear
12:15 PM 50.7 °F - 38.7 °F 63% 30.01 in 10.0 mi SSE 12.7 mph 17.3 mph N/A   Clear
12:35 PM 51.4 °F - 39.6 °F 64% 30.00 in 10.0 mi South 10.4 mph - N/A   Clear
12:55 PM 51.8 °F - 40.1 °F 64% 30.00 in 10.0 mi South 11.5 mph 17.3 mph N/A   Clear
1:15 PM 51.8 °F - 40.3 °F 65% 29.99 in 10.0 mi South 11.5 mph - N/A   Clear
1:35 PM 52.9 °F - 40.8 °F 64% 29.98 in 10.0 mi SSE 9.2 mph - N/A   Clear
1:55 PM 52.5 °F - 40.6 °F 64% 29.98 in 10.0 mi South 9.2 mph - N/A   Clear
2:15 PM 53.2 °F - 41.4 °F 64% 29.96 in 10.0 mi SE 10.4 mph - N/A   Clear
2:35 PM 53.6 °F - 41.9 °F 65% 29.95 in 10.0 mi SE 11.5 mph - N/A   Clear
2:55 PM 53.2 °F - 42.1 °F 66% 29.94 in 10.0 mi SSE 12.7 mph 17.3 mph N/A   Clear
3:15 PM 53.4 °F - 41.9 °F 65% 29.93 in 10.0 mi South 10.4 mph - N/A   Clear
3:35 PM 53.1 °F - 42.3 °F 67% 29.92 in 10.0 mi SE 12.7 mph 17.3 mph N/A   Clear
3:55 PM 53.4 °F - 42.1 °F 65% 29.92 in 10.0 mi SSE 13.8 mph 18.4 mph N/A   Clear
4:15 PM 53.6 °F - 42.6 °F 66% 29.91 in 10.0 mi SSE 13.8 mph 19.6 mph N/A   Clear
4:35 PM 52.7 °F - 42.1 °F 67% 29.91 in 10.0 mi SSE 11.5 mph - N/A   Clear
4:55 PM 50.9 °F - 42.4 °F 73% 29.91 in 10.0 mi SSE 10.4 mph 16.1 mph N/A   Clear
5:15 PM 50.4 °F - 42.3 °F 74% 29.91 in 10.0 mi SSE 12.7 mph 17.3 mph N/A   Clear
5:35 PM 49.6 °F - 42.3 °F 76% 29.90 in 10.0 mi SSE 11.5 mph 17.3 mph N/A   Clear
5:55 PM 49.1 °F - 42.3 °F 77% 29.89 in 10.0 mi South 12.7 mph - N/A   Clear
6:15 PM 48.2 °F - 42.3 °F 80% 29.90 in 10.0 mi South 6.9 mph - N/A   Clear
6:35 PM 48.2 °F - 41.9 °F 79% 29.90 in 10.0 mi SSE 8.1 mph 19.6 mph N/A   Clear
6:55 PM 47.7 °F - 42.3 °F 82% 29.90 in 10.0 mi SSE 9.2 mph 16.1 mph N/A   Clear
7:15 PM 47.3 °F - 42.4 °F 83% 29.89 in 10.0 mi SSE 9.2 mph 17.3 mph N/A   Clear
7:35 PM 47.3 °F - 42.3 °F 83% 29.89 in 10.0 mi SSE 10.4 mph 16.1 mph N/A   Clear
7:55 PM 46.9 °F - 42.4 °F 84% 29.89 in 10.0 mi SSE 8.1 mph - N/A   Clear
8:15 PM 46.8 °F - 42.8 °F 86% 29.89 in 10.0 mi SSE 10.4 mph - N/A   Clear
8:35 PM 46.9 °F - 42.8 °F 86% 29.89 in 10.0 mi South 8.1 mph - N/A   Clear
8:55 PM 46.6 °F - 42.8 °F 87% 29.89 in 10.0 mi SSE 8.1 mph - N/A   Clear
9:15 PM 46.6 °F - 42.8 °F 87% 29.89 in 10.0 mi SSE 8.1 mph - N/A   Clear
9:35 PM 46.4 °F 44.3 °F 42.8 °F 87% 29.89 in 10.0 mi SSE 4.6 mph - N/A   Clear
9:55 PM 46.2 °F 44.1 °F 42.8 °F 88% 29.89 in 10.0 mi SSE 4.6 mph - N/A   Clear
10:15 PM 46.4 °F 44.3 °F 43.0 °F 88% 29.88 in 10.0 mi South 4.6 mph - N/A   Clear
10:35 PM 46.4 °F 44.3 °F 43.2 °F 88% 29.89 in 10.0 mi SSE 4.6 mph - N/A   Clear
10:55 PM 46.4 °F 42.9 °F 43.7 °F 90% 29.88 in 10.0 mi SSE 6.9 mph - N/A   Clear
11:15 PM 47.3 °F - 43.9 °F 88% 29.87 in 10.0 mi South 6.9 mph - N/A   Clear
11:35 PM 47.7 °F - 44.1 °F 87% 29.86 in 10.0 mi SSE 6.9 mph - N/A   Clear
11:55 PM 47.7 °F - 44.1 °F 87% 29.86 in 10.0 mi SSE 8.1 mph 16.1 mph N/A   Clear